Weather History for Sierra Vista, AZ

Change the Weather History Date:

Thursday, November 8, 2012

  Actual Average Record
Temperature  
Mean Temperature 67 °F -  
Max Temperature 77 °F 67 °F 82 °F (2005)
Min Temperature 57 °F 45 °F 30 °F (2000)
Cooling Degree Days 2    
Growing Degree Days 17 (Base 50)    
Moisture  
Dew Point 33 °F    
Average Humidity 32    
Maximum Humidity 63    
Minimum Humidity 15    
Precipitation  
Precipitation 0.00 in - - ()
Sea Level Pressure  
Sea Level Pressure 29.95 in    
Wind  
Wind Speed 8 mph (SW)    
Max Wind Speed 23 mph    
Max Gust Speed 34 mph    
Visibility 10 miles    
Events Rain    
Averages and records for this station are not official NWS values.
T = Trace of Precipitation, MM = Missing Value Source: NWS Daily Summary

Daily Weather History Graph

Daily Weather History Graph

Search for Another Location

Airport:

Trip Planner

Search our weather history database for the weather conditions in past years. The results will help you decide how hot, cold, wet, or windy it might be!

Date:

Astronomy

Nov. 08, 2012 Rise Set
Actual Time 6:43 AM MST 5:26 PM MST
Civil Twilight 6:18 AM MST 5:51 PM MST
Nautical Twilight 5:49 AM MST 6:20 PM MST
Astronomical Twilight 5:20 AM MST 6:49 PM MST
Moon 1:03 AM MST (11/8) 1:50 PM MST (11/8)
Length of Visible Light 11h 33m
Length of Day
10h 42m
Waning Crescent, 32% of the Moon is Illuminated
Nov 8
Waning Crescent
Nov 13
New
Nov 20
First Quarter
Nov 28
Full
Dec 6
Last Quarter

Hourly Weather History & Observations

Time (MST) Temp. Dew Point Humidity Pressure Visibility Wind Dir Wind Speed Gust Speed Precip Events Conditions
12:55 AM 62.6 °F 28.4 °F 27% 29.92 in 10.0 mi West 4.6 mph - N/A   Mostly Cloudy
1:55 AM 60.8 °F 28.4 °F 29% 29.91 in 10.0 mi South 4.6 mph - N/A   Mostly Cloudy
2:55 AM 60.8 °F 28.4 °F 29% 29.90 in 10.0 mi South 4.6 mph - N/A   Mostly Cloudy
3:55 AM 62.6 °F 28.4 °F 27% 29.89 in 10.0 mi South 3.5 mph - N/A   Mostly Cloudy
4:55 AM 59.0 °F 28.4 °F 31% 29.91 in 10.0 mi West 10.4 mph - N/A   Mostly Cloudy
5:55 AM 57.2 °F 28.4 °F 33% 30.07 in 10.0 mi West 4.6 mph - N/A   Mostly Cloudy
6:55 AM 57.2 °F 28.4 °F 33% 29.94 in 10.0 mi Calm Calm - N/A   Overcast
7:55 AM 60.8 °F 28.4 °F 29% 29.95 in 10.0 mi Calm Calm - N/A   Mostly Cloudy
8:55 AM 62.6 °F 28.4 °F 27% 29.97 in 10.0 mi South 4.6 mph - N/A   Mostly Cloudy
9:55 AM 69.8 °F 24.8 °F 18% 29.96 in 10.0 mi West 13.8 mph - N/A   Mostly Cloudy
10:55 AM 71.6 °F 28.4 °F 20% 29.95 in 10.0 mi West 12.7 mph - N/A   Mostly Cloudy
11:55 AM 73.4 °F 28.4 °F 19% 29.93 in 10.0 mi WSW 12.7 mph 17.3 mph N/A   Mostly Cloudy
12:55 PM 75.2 °F 24.8 °F 15% 29.89 in 10.0 mi WSW 11.5 mph - N/A   Scattered Clouds
1:55 PM 77.0 °F 26.6 °F 16% 29.87 in 10.0 mi WNW 16.1 mph 23.0 mph N/A   Mostly Cloudy
2:55 PM 75.2 °F 28.4 °F 18% 29.88 in 10.0 mi WSW 12.7 mph - N/A   Mostly Cloudy
3:55 PM 71.6 °F 32.0 °F 23% 29.89 in 10.0 mi SW 20.7 mph 26.5 mph N/A   Mostly Cloudy
4:55 PM 68.0 °F 35.6 °F 30% 29.91 in 10.0 mi SSW 11.5 mph - N/A   Mostly Cloudy
5:45 PM 68.0 °F 35.6 °F 30% 30.05 in 10.0 mi SW 13.8 mph 20.7 mph N/A Rain Light Rain
5:55 PM 66.2 °F 35.6 °F 32% 29.93 in 10.0 mi SW 11.5 mph - N/A   Mostly Cloudy
5:57 PM 66.2 °F 37.4 °F 35% 29.95 in 10.0 mi West 13.8 mph - N/A   Overcast
6:55 PM 66.2 °F 37.4 °F 35% 29.95 in 10.0 mi West 13.8 mph - N/A   Overcast
7:55 PM 60.8 °F 39.2 °F 45% 29.96 in 10.0 mi West 6.9 mph - N/A   Mostly Cloudy
8:22 PM 62.6 °F 39.2 °F 42% 30.08 in 10.0 mi West 9.2 mph - N/A Rain Light Rain Showers
8:42 PM 62.6 °F 39.2 °F 42% 30.08 in 10.0 mi SSW 13.8 mph - N/A   Mostly Cloudy
8:55 PM 62.6 °F 39.2 °F 42% 29.95 in 10.0 mi SSW 12.7 mph - N/A   Mostly Cloudy
9:06 PM 64.4 °F 39.2 °F 40% 30.08 in 10.0 mi SSW 23.0 mph 34.5 mph N/A Rain Light Rain Showers
9:29 PM 59.0 °F 44.6 °F 59% 30.05 in 10.0 mi South 16.1 mph 27.6 mph N/A   Mostly Cloudy
9:55 PM 57.2 °F 44.6 °F 63% 29.92 in 10.0 mi South 6.9 mph - N/A   Mostly Cloudy
10:55 PM 62.6 °F 39.2 °F 42% 29.93 in 10.0 mi Calm Calm - N/A   Mostly Cloudy
11:55 PM 62.6 °F 39.2 °F 42% 29.91 in 10.0 mi SSW 15.0 mph 27.6 mph N/A   Mostly Cloudy